Location: Newark
(47.5833°N, 8.1500°E)
Time: 23:48:15
(UTC+00:00)

Tiros 1 despin weight - Pass Details

Date: 28 October 2020
Orbit: 593 x 642 km, 48.2° (Epoch: 29 November)

Event Time Altitude Azimuth Distance (km) Brightness Sun altitude
Rises 03:31:14 0° 279° (W) 2,842 - -26.5°
Reaches altitude 10° 03:33:31 10° 279° (W) 1,934 - -26.1°
Maximum altitude 03:37:58 89° 192° (SSW) 599 - -25.4°
Exits shadow 03:38:27 70° 102° (ESE) 633 ? -25.3°
Drops below altitude 10° 03:42:23 10° 101° (ESE) 1,923 ? -24.7°
Sets 03:44:39 0° 102° (ESE) 2,824 ? -24.3°
